METEOR 2-7 DEB, 43300

Orbit data source: Space-Track

METEOR 2-7 DEB, 43300 is space debris in LEO originally from a launch on Thu, 14 May 1981 UTC launched from the Plesetsk Missile And Space Complex (PKMTR). Debris objects in space refer to the collection of defunct objects orbiting the Earth. Examples of debris include non-operational satellites, rocket bodies, and fragments generated from explosions, collisions, or faulty payload assembly.

Loading next visibility...
Identifier
43300, 1981-043X
Orbit
LEO
Country
Flag of CISCIS
Related business
Manufacturer
Unknown
Mission
Spacecraft
Bus & Motor
Unknown
Mass
Unknown
Launch date (UTC)
1981-05-14 (45 years ago)
Launch vehicle
Unknown
Launch site
Plesetsk Missile And Space Complex (PKMTR)
Object type
Payload
Rocket body
Debris
Shape & HBR
Unknown shape, 0.1 m
Radar Cross Section
Small (<0.1 m²)

Expand to show TLE details & history
Last TLE update: 6 days ago

TLE from 6 days ago
0 METEOR 2-7 DEB
1 43300U 81043X   26167.41246159  .00004350  00000-0  15294-2 0  9995
2 43300  81.2535  57.0830 0036988  21.2401 339.0309 14.34413164555185
Epoch: 2026-06-16T09:53Z
TLE epoch observation values (Epoch: 2026-06-16T09:53:56.681Z)
Latitude
0.00003°
Longitude
3.91197°
Altitude
755.245 km
Speed
7.49 km/s
True Right ascension
03h 48m 19s
True Declination
0° 00' 00"
Sunlit
Object was in daylight at epoch
Visualization orbit readout
Latitude
Unknown
Longitude
Unknown
Altitude
Unknown
Speed
Unknown
Apparent Right ascension
Unknown
Apparent Declination
Unknown
Sunlit
N/A
Visualization observer readout
Local Sidereal Time
21:35:18
Azimuth
Unknown
Elevation
Unknown
Doppler factor
Unknown
Orbital elements
Apogee altitude
800.613 km
Perigee altitude
747.703 km
Semi-major axis
7,152.295 km
Eccentricity
0.0037
Inclination
81.2535°
RAAN
57.083°
Arg. of periapsis
21.2401°
True anomaly
338.87856°
Mean anomaly
339.0309°
Eccentric anomaly
338.9548°
Mean motion
3.58819 °/min
Orbital period
100.33 mins
BSTAR
0.0015294
Loading maneuver chart data...
Computing Atmospheric mass density...

Documentation

Showing up to 5 results
|